Location: Unspecified
(30.9667°N, 0.0000°E)
Time: 02:41:46
(UTC+00:00)

FW4D - Visible Passes

Search period start: 04 April 2026 00:00
Search period end: 14 April 2026 00:00
Orbit: 573 x 3285 km, 88.4° (Epoch: 29 March)

Date Brightness Start Highest point End Pass type
(mag) Time Alt. Az. Time Alt. Az. Time Alt. Az.
5 Apr 10.5 19:30:27 10° SSW 19:36:01 27° W 19:40:03 10° NNW visible
7 Apr 11.1 19:41:39 10° SW 19:45:20 16° W 19:48:20 10° NW visible
8 Apr 12.3 04:35:52 10° NE 04:40:20 16° E 04:46:04 10° SE visible
8 Apr 8.9 18:41:21 10° S 18:47:37 57° W 18:51:53 10° NNW visible
10 Apr 11.8 04:43:52 10° NE 04:49:49 25° E 04:58:18 10° SE visible
10 Apr 9.9 18:51:34 10° SSW 18:56:55 35° W 19:00:50 10° NNW visible
12 Apr 11.4 04:52:26 10° NNE 04:59:16 35° E 05:09:51 10° SSE visible
12 Apr 10.7 19:02:10 10° SW 19:06:13 21° W 19:09:29 10° NW visible
13 Apr 12.4 03:57:31 10° ENE 04:01:43 14° E 04:06:49 10° ESE visible
